Regional Weather Roundup
Issued by NWS

Home | Current Version | Previous Version | Text Only | Print | Product List | Glossary Off
Versions: 1 2 3 4 5 6 7 8 9 10 11 12 13 14 15 16 17 18 19 20 21 22 23 24 25 26 27 28 29 30 31 32 33 34 35 36 37 38 39 40 41 42 43 44 45 46 47 48 49 50

000
ASUS45 KCYS 260710
RWRWY

WYOMING REGIONAL WEATHER ROUNDUP
NATIONAL WEATHER SERVICE CHEYENNE WY
100 AM MDT MON JUN 26 2017

NOTE:  "FAIR" INDICATES FEW OR NO CLOUDS BELOW 12,000 FEET
WITH NO SIGNIFICANT WEATHER AND/OR OBSTRUCTIONS TO VISIBILITY.

WYZ001-260800-
YELLOWSTONE NATIONAL PARK

CITY           SKY/WX    TMP DP  RH WIND       PRES   REMARKS
LK YELLOWSTONE   N/A     41  35  79 NW3       30.44S
W YELLOWSTONE  NOT AVBL

$$
WYZ002>013-054>058-071-098>099-260800-
NORTHERN WYOMING

CITY           SKY/WX    TMP DP  RH WIND       PRES   REMARKS
JACKSON        FAIR      46  39  76 N7        30.34R
CODY           FAIR      57  36  45 S6        30.28F
GREYBULL       FAIR      61  31  32 W5        30.20S
WORLAND        FAIR      62  40  44 S7        30.22S
SHERIDAN       FAIR      50  41  71 S3        30.23F
BUFFALO        FAIR      56  36  47 SW9       30.29F
GILLETTE       FAIR      46  35  65 CALM      30.26F
NEWCASTLE      FAIR      61  27  27 S13       30.28R

$$
WYZ014>020-022>026-101>103-260800-
CENTRAL WYOMING

CITY           SKY/WX    TMP DP  RH WIND       PRES   REMARKS
BIG PINEY      FAIR      49  37  63 SE9       30.38R
PINEDALE       FAIR      48  41  76 NW3       30.37S
DUBOIS         FAIR      52  36  54 NW8       30.41S
LANDER         FAIR      60  35  39 W12       30.29S
RIVERTON       FAIR      62  37  39 E10       30.30S
CASPER         FAIR      49  36  61 N9        30.31F
DOUGLAS        FAIR      50  37  61 N6        30.30S

$$
WYZ021-027>030-104>119-260800-
SOUTHERN WYOMING

CITY           SKY/WX    TMP DP  RH WIND       PRES   REMARKS
EVANSTON       FAIR      62  34  35 S5        30.35S
KEMMERER         N/A     55  37  50 N10       30.38S
FORT BRIDGER   FAIR      64  30  27 S3        30.38S
ROCK SPRINGS   FAIR      57  32  38 NE8       30.33S
DIXON          FAIR      58  28  30 NE8       30.34S
RAWLINS        FAIR      53  27  36 NE10      30.35S
SARATOGA       FAIR      46  30  53 SE6       30.37S
LARAMIE        FAIR      49  45  86 SE9       30.38F
CHEYENNE       FAIR      54  52  93 SW13      30.35S
TORRINGTON     FAIR      55  46  71 E8        30.22F
PINE BLUFFS    FAIR      54  54 100 SW10      30.31S

$$



USA.gov is the U.S. government's official web portal to all federal, state and local government web resources and services.